{"data":{"norad_id":60280,"intl_designator":"2024-132C","name":"STARLINK-32118","alt_names":[],"object_type":"PAYLOAD","status":"ACTIVE","operator":null,"country":"US","launch_date":"2024-07-28","launch_site_code":"AFETR","launch_vehicle":null,"mission":null,"orbit_class":"UNKNOWN","rcs_meters":null,"size_class":null,"mass_kg":null,"dimensions":null,"purposes":["comms"],"wikipedia_slug":null,"has_3d_model":false,"image_url":null,"decayed_at":null,"tle_current":{"epoch":"2026-05-25T01:11:12.074784Z","epoch_age_seconds":73943,"freshness":"FRESH","line1":"1 60280U 24132C   26145.04944531  .00001663  00000+0  68256-4 0  9992","line2":"2 60280  53.1590  57.5892 0001222  92.5187 267.5953 15.30194976103259","mean_motion":15.30194976,"eccentricity":0.0001222,"inclination_deg":53.159,"raan_deg":57.5892,"arg_perigee_deg":92.5187,"mean_anomaly_deg":267.5953,"bstar":6.8256e-5,"rev_number":10325,"period_min":94.105654677042,"perigee_km":474.3925887628,"apogee_km":476.06755167477,"semimajor_km":6853.3670702188,"source":"CELESTRAK","updated_at":"2026-05-25T13:38:19.203872Z"}}}